Погода в Санта Ана

Боливия     13°44′35″S   65°26′04″W
темп.,
°C
ветер,
м/с
пор.,
м/с
влажн.,
%
обл.,
%
осадки,
мм/ч
давл.,
гПа
погр.,
м
8 мая, сб
сб823:00+14ююв3977100 0.0 1019254
02:00+14ююв387992 0.0 1018187
05:00+14ююв37825 0.0 1018160
08:00+16ююв35795 0.0 1020220
11:00+22ююв346332 0.0 1020726
14:00+26ююв22555 0.0 10161119
17:00+25ю236718 0.0 1014223
20:00+20ююв22815 0.0 101520
9 мая, вс
вс923:00+19ююв228445 0.0 101622
02:00+18ю2287100 0.0 101618
05:00+17ю229076 0.0 101614
08:00+20ю22820 0.0 1018141
11:00+25юв12616 0.0 1018695
14:00+28юз01515 0.0 10141096
17:00+28з11615 0.0 1012438
20:00+23всв11705 0.0 101311
10 мая, пн
пн1023:00+22юв11775 0.0 101411
02:00+21ю11785 0.0 101311
05:00+20ююв22812 0.0 101415
08:00+22ю23785 0.0 1016128
11:00+28ююв22585 0.0 1016666
14:00+30ююз11525 0.0 10131135
17:00+30ю11625 0.0 1011291
20:00+25вюв22780 0.0 101323
11 мая, вт
вт1123:00+23ююв22863 0.4 101516
02:00+23ю22874 0.7 101333
05:00+22ююв34905 0.0 101382
08:00+23ююв35865 0.1 1015167
11:00+29ююв336396 0.0 1015780
14:00+31ююв33560 0.0 10111272
17:00+29ю23675 0.1 1010159
20:00+25ю33795 0.1 101250
12 мая, ср
ср1223:00+24ююв33811 0.0 101349
02:00+22ююв38876 0.1 1013187
05:00+21ююв310853 0.0 1013272
08:00+22юв5118382 0.0 1016386
11:00+26юв566560 0.0 1017806
14:00+28ююв556040 0.0 10131243
17:00+25ююв4771100 0.0 1012560
20:00+22ю397938 0.0 1014239